Location: Houston
(29.7630°N, 95.3630°W)
Time: 09:12:41
(UTC-05:00)

ISS - All Passes

Search period start: 31 October 2014 00:00
Search period end: 09 November 2014 23:00
Orbit: 412 x 417 km, 51.6° (Epoch: 31 October)

Date Brightness Start Highest point End Pass type
(mag) Time Alt. Az. Time Alt. Az. Time Alt. Az.
31 Oct - 09:35:25 10° SSW 09:38:34 42° SE 09:41:43 10° ENE daylight
31 Oct - 11:13:31 10° WNW 11:15:24 14° NW 11:17:16 10° N daylight
31 Oct - 17:45:14 10° NNW 17:48:21 35° NE 17:51:27 10° ESE daylight
31 Oct - 19:23:04 10° W 19:24:45 13° SW 19:26:26 10° SSW visible
01 Nov - 08:47:00 10° S 08:49:31 20° SE 08:52:02 10° ENE daylight
01 Nov - 10:23:18 10° W 10:26:04 24° NW 10:28:51 10° NNE daylight
01 Nov - 16:56:32 10° N 16:59:04 20° NE 17:01:35 10° E daylight
01 Nov - 18:32:51 10° WNW 18:35:43 27° SW 18:38:34 10° S daylight
02 Nov - 08:33:35 10° WSW 08:36:47 46° NW 08:40:00 10° NNE daylight
02 Nov - 15:08:22 10° NNE 15:09:39 12° NE 15:10:56 10° ENE daylight
02 Nov - 16:43:18 10° NW 16:46:35 59° SW 16:49:51 10° SSE daylight
03 Nov - 07:44:15 10° SW 07:47:32 79° SE 07:50:51 10° NE daylight
03 Nov - 15:54:03 10° NW 15:57:21 62° NE 16:00:38 10° SE daylight
04 Nov - 06:55:17 10° SSW 06:58:19 34° SE 07:01:22 10° ENE daylight
04 Nov - 08:32:54 10° WNW 08:35:04 16° NW 08:37:14 10° N daylight
04 Nov - 15:05:01 10° NNW 15:08:00 30° NE 15:10:58 10° ESE daylight
04 Nov - 16:42:20 10° W 16:44:27 16° SW 16:46:34 10° SSW daylight
05 Nov - 06:06:55 10° SSE 06:09:07 17° SE 06:11:20 10° E visible
05 Nov - 07:42:41 10° WSW 07:45:36 28° NW 07:48:31 10° NNE daylight
05 Nov - 14:16:15 10° N 14:18:32 17° NE 14:20:48 10° E daylight
05 Nov - 15:52:14 10° WNW 15:55:15 32° SW 15:58:15 10° SSE daylight
06 Nov - 06:52:55 10° SW 06:56:10 57° NW 06:59:26 10° NE daylight
06 Nov - 13:28:32 10° NNE 13:28:56 10° NNE 13:29:20 10° NE daylight
06 Nov - 15:02:37 10° NW 15:05:56 74° SW 15:09:14 10° SE daylight
07 Nov - 06:03:31 10° SSW 06:06:47 63° SE 06:10:03 10° NE visible
07 Nov - 07:42:41 10° NW 07:43:44 11° NW 07:44:47 10° NNW daylight
07 Nov - 14:13:17 10° NNW 14:16:31 49° NE 14:19:45 10° ESE daylight
08 Nov - 05:14:33 10° S 05:17:25 28° SE 05:20:18 10° ENE visible
08 Nov - 06:51:39 10° W 06:54:05 19° NW 06:56:31 10° N daylight
08 Nov - 13:24:10 10° NNW 13:26:59 25° NE 13:29:48 10° E daylight
08 Nov - 15:01:03 10° W 15:03:30 19° SW 15:05:57 10° S daylight
09 Nov - 04:26:19 10° SSE 04:28:05 14° SE 04:29:50 10° E visible
09 Nov - 06:01:26 10° WSW 06:04:28 34° NW 06:07:32 10° NNE visible
09 Nov - 12:35:23 10° N 12:37:20 15° NE 12:39:17 10° ENE daylight
09 Nov - 14:10:59 10° WNW 14:14:07 40° SW 14:17:15 10° SSE daylight
